Regional Weather Roundup
Issued by NWS

Home | Current Version | Previous Version | Graphics & Text | Print | Product List | Glossary On
Versions: 1 2 3 4 5 6 7 8 9 10 11 12 13 14 15 16 17 18 19 20 21 22 23 24 25 26 27 28 29 30 31 32 33 34 35 36 37 38 39 40 41 42 43 44 45 46 47 48 49 50
000
ASUS43 KIND 150359
RWRIN

WEATHER ROUNDUP FOR INDIANA
NATIONAL WEATHER SERVICE INDIANAPOLIS IN
1100 PM EST THU DEC 14 2017

NOTE: "FAIR" INDICATES FEW OR NO CLOUDS BELOW 12,000 FEET WITH NO
SIGNIFICANT WEATHER AND/OR OBSTRUCTIONS TO VISIBILITY.

* - STATION DOES NOT REPORT WEATHER SUCH AS PRECIPITATION OR FOG.

+ - STATION NOT QUALITY CONTROLLED BY THE NATIONAL WEATHER SERVICE.
    USE DATA WITH CAUTION...ESPECIALLY DEWPOINT AND RELATIVE
    HUMIDITY OBSERVATIONS.

INZ001>003-010>013-019-020-150500-
NORTHWEST INDIANA

CITY           SKY/WX    TMP DP  RH WIND       PRES   REMARKS
GARY /AIRPORT/ PTCLDY    16  10  79 W5        30.09S WCI   9
KNOX *+        CLOUDY    16  12  86 S6        30.07S WCI   7
LA PORTE +     PTCLDY     6   4  91 CALM      30.07S
MICHIGAN CITY+ MOCLDY    19  12  73 SW7       30.07S WCI  10
MONTICELLO +   CLOUDY    18  12  79 CALM      30.07F
RENSSELAER +   CLEAR     19  14  79 CALM      30.08F

$$

LMZ046-743>745-150500-
SOUTHERN LAKE MICHIGAN

STATION/POSITION TIME  TEMP    WIND        PRES    WAVE
                       AIR SEA DIR/SP/G            HT
                 (UTC) (F)     (DEG/KT/KT) (MB)    (FT)
BURNS HARBOR     0340   26     250/  7/ 13 1018.6F
MICHIGAN CITY    0330   24     190/ 10/ 11   N/A

$$

INZ004-005-014>016-021>024-150500-
NORTH CENTRAL INDIANA

CITY           SKY/WX    TMP DP  RH WIND       PRES   REMARKS
GOSHEN         PTCLDY    18   9  68 S6        30.06R WCI  10
PERU/GRISSOM   CLOUDY    23  17  77 S3        30.06F
ROCHESTER +    CLOUDY    25  18  74 S3        30.07S
SOUTH BEND     MOCLDY    13  10  88 SW5       30.06S WCI   5
WARSAW +       MOCLDY    19  10  68 CALM      30.06S

$$

INZ006>009-017-018-025>027-150500-
NORTHEAST INDIANA

CITY           SKY/WX    TMP DP  RH WIND       PRES   REMARKS
AUBURN +       CLOUDY    19  10  68 CALM      30.07S
FORT WAYNE     CLOUDY    19  13  77 S3        30.08S
KENDALLVILLE + PTCLDY    17   9  68 S6        30.05S WCI   9

$$

INZ028-029-035-036-043>045-051>053-150500-
WEST CENTRAL INDIANA

CITY           SKY/WX    TMP DP  RH WIND       PRES   REMARKS
CRAWFORDSVL +  CLOUDY    23  17  79 SE3         N/A
GREENCASTLE +  CLOUDY    23  14  68 CALM      30.08F
LAFAYETTE      MOCLDY    25  16  68 CALM      30.08F
TERRE HAUTE    CLOUDY    28  18  66 CALM      30.09F

$$

INZ030>032-037>040-046>048-054>057-064-065-150500-
CENTRAL INDIANA

CITY           SKY/WX    TMP DP  RH WIND       PRES   REMARKS
FRANKFORT +    CLOUDY    27  17  66 CALM      30.08F
GREENWOOD *+   CLOUDY    27  19  71 CALM      30.08F
INDIANAPOLIS   CLOUDY    24  15  68 S5        30.08F WCI  18
-EAGLE CREEK   CLOUDY    25  14  63 SE3       30.07F
KOKOMO +       CLOUDY    21  15  78 SE5       30.08S WCI  15
MT COMFORT *+  PTCLDY    19  18  93 CALM      30.08S
SHELBYVILLE    PTCLDY    21  15  78 E3        30.08F

$$

INZ033-034-041-042-049-050-058-059-150500-
EAST CENTRAL INDIANA

CITY           SKY/WX    TMP DP  RH WIND       PRES   REMARKS
MUNCIE         MOCLDY    24  13  62 S5        30.07F WCI  18
RICHMOND +     CLOUDY    18  16  93 CALM      30.07S

$$

INZ060-061-067>069-081>083-085>088-150500-
SOUTHWEST INDIANA

CITY           SKY/WX    TMP DP  RH WIND       PRES   REMARKS
EVANSVILLE     CLOUDY    31  22  69 NW3       30.12R
HUNTINGBURG +  CLOUDY    30  22  72 CALM      30.10S

$$

INZ062-063-066-070>080-084-089>092-150500-
SOUTH CENTRAL AND SOUTHEAST INDIANA

CITY           SKY/WX    TMP DP  RH WIND       PRES   REMARKS
BLOOMINGTON    PTCLDY    23  16  74 CALM      30.08F
MADISON *+     CLOUDY    25  18  74 CALM      30.10S
SEYMOUR +      PTCLDY    27  18  69 CALM      30.09F

$$





USA.gov is the U.S. government's official web portal to all federal, state and local government web resources and services.